549  
FPUS82 KCHS 192227  
OPUCHS  
 
TEST   
..KCHS/KSAV GATEWAY OBSERVATIONS
 
TEST  
NATIONAL WEATHER SERVICE CHARLESTON SC  
600 PM EDT SUN MAY 19 2019  
 
NOTE: "FAIR" INDICATES FEW OR NO CLOUDS BELOW 12,000 FEET WITH NO  
SIGNIFICANT WEATHER AND/OR OBSTRUCTIONS TO VISIBILITY.  
 
SCZ050-WAZ558-NCZ071-TXZ119-213-PAZ071-DCZ001-FLZ074-172-MI076-  
NYZ176-178-MAZ016-IL014-TNZ027-NJZ106-GAZ044-MD014-192300-  
   
..GATEWAY OBSERVATIONS FOR CHARLESTON INTERNATIONAL
 
 
 
CITY SKY/WX TMP DP RH WIND PRES REMARKS  
CHAS AIRPORT FAIR 82 68 62 S14 30.05S  
SEATTLE MOSUNNY 69 47 45 SW7 29.73F  
CHARLOTTE FAIR 87 54 32 S14 29.99F  
DALLAS DFW MOSUNNY 84 59 42 N10 29.86F  
DALLAS LOVE MOSUNNY 86 54 33 SE6 29.86F  
PHILLADELPHIA FAIR 83 69 62 S16 29.90F  
WASH NATIONAL PTSUNNY 85 69 58 S14 29.88F  
BALTIMORE FAIR 84 71 65 SE15G22 29.88F  
MIAMI FAIR 85 69 58 E14 29.97F  
DETROIT LGT RAIN 65 61 87 SE10 29.71F  
NEWARK PTSUNNY 82 68 62 S15 29.90F  
LAGUARDIA PTSUNNY 73 63 70 S20G30 29.91F  
J F K PTSUNNY 66 64 93 S25G36 29.95F  
BOSTON LOGAN PTSUNNY 69 56 62 SW20 29.95F  
FT. LAUDERDALE FAIR 82 70 66 E13 29.97F  
CHICAGO O'HARE PTSUNNY 71 55 56 W21G30 29.60R  
CHICAGO MIDWAY PTSUNNY 70 57 63 W17G29 29.62R  
HOUSTON BUSH CLOUDY 88 78 72 SE18 29.83S HX 101  
HOUSTON HOBBY PTSUNNY 89 73 59 S15 29.83F HX 97  
NASHVILLE CLOUDY 74 66 76 SW9 29.92S  
ATLANTA PTSUNNY 84 56 38 SW10 30.00F  
 

 
 
GAZ044-118-TXZ119-213-NCZ071-DCZ001-MDZ014-506-PAZ021-071-NJZ106-  
NYZ176-178-MAZ106-OHZ011-021-055-MIZ076-KYZ091-ILZ014-INZ047-  
MNZ060-ONZ431-192300-  
   
..GATEWAY OBSERVATIONS FOR SAVANNAH INTERNATIONAL
 
 
 
CITY SKY/WX TMP DP RH WIND PRES REMARKS  
SAVANNAH ARPT FAIR 84 70 62 SE15 30.02F  
ATLANTA PTSUNNY 84 56 38 SW10 30.00F  
CHARLOTTE FAIR 87 54 32 S14 29.99F  
DALLAS DFW MOSUNNY 84 59 42 N10 29.86F  
HOUSTON BUSH CLOUDY 88 78 72 SE18 29.83S HX 101  
WASH NATIONAL PTSUNNY 85 69 58 S14 29.88F  
WASH DULLES PTSUNNY 88 64 44 S15G26 29.88F  
BALTIMORE FAIR 84 71 65 SE15G22 29.88F  
PHILADELPHIA FAIR 83 69 62 S16 29.90F  
NEWARK PTSUNNY 82 68 62 S15 29.90F  
LAGUARDIA PTSUNNY 73 63 70 S20G30 29.91F  
J F K PTSUNNY 66 64 93 S25G36 29.95F  
BOSTON PTSUNNY 69 56 62 SW20 29.95F  
PITTSBURG PTSUNNY 83 57 41 W8G18 29.83R  
AKRON CLOUDY 79 56 45 SW14 29.81S  
CLEVELAND LGT RAIN 76 58 53 SW15G24 29.81R  
CINCINNATI CLOUDY 69 64 84 SW6 29.84S  
COLUMBUS CLOUDY 69 61 77 W18G26 29.83R  
DETROIT LGT RAIN 65 61 87 SE10 29.71F  
CHICAGO O'HARE PTSUNNY 71 55 56 W21G30 29.60R  
MINNEAPOLIS CLOUDY 40 35 83 N15G25 29.86R WCI 32  
INDIANAPOLIS PTSUNNY 72 65 78 S14 29.74F  
TORONTO CANADA PTSUNNY 68 57 68 SE12G21 29.68S  
 

 
 
 
CLICK HERE TO GO TO PREVIOUS BULLETINS.

The Nexlab SC Page
The Nexlab GA Page Main Text Page